BEIDOU-3 M16 (C35)

Last updated on Sun Jun 21 2026 00:03:32 GMT+0000 (Coordinated Universal Time)

1 43647U 18078A 26171.24134385 -.00000090 00000+0 00000+0 0 9993 2 43647 54.0868 299.8789 0007135 41.0909 318.9600 1.86232267 52212
UTC large
Height (km)
Speed (km/s)
/
Latitude / Longitude
Inclination (degrees)
Orbital Period (minutes)
Azimuth
Elevation
Range (km)
Doppler Factor

Next 0 passes for location: London (51.5072 / 0.1276)

No passes found over London.
BEIDOU-3 M16 (C35)